Het weer op Woensdrecht:2015/07/08 06:25 EHWO 080625Z AUTO 23012KT 9999 BKN018 OVC023 15/11 Q1008 WHT 23012KT 9999 FEW015 SCT020 BKN040 TEMPO 25015G30KT 4500 SHRA FEW012 SCT018CB BKN022
Het weer op Amsterdam:2015/07/08 06:25 EHAM 080625Z 24016KT 9999 -SHRA FEW014 FEW018CB 15/13 Q1006 NOSIG

Menu promotie
· De club
· Motor(zweefvliegen) bij de ACV
· De vloot
· Kennismaken met de ACV


Buien Radar


Inloggen voor leden
WelkomAnonymous!


Lid nummer    
Wachtwoord 
Code: Code
Type Code in
[Wachtwoord vergeten?]


Picasa foto link
ACV externe fotolink


 
Sorry, deze module is niet actief (acv_addon_4)

[ Ga terug ]
copyright (c) ACV 2006 - 2015

All logos and trademarks in this site are property of their respective owner. The comments are property of their posters, all the rest 2005 by me.
PHP-Nuke Copyright © 2005 by Francisco Burzi. This is free software, and you may redistribute it under the GPL. PHP-Nuke comes with absolutely no warranty, for details, see the license.
Pagina Rendering: 0.24 Seconden